Location: Shenandoah County Park
(38.9356°N, 78.4524°W)
Time: 16:54:37
(UTC-04:00)

BlueWalker 3 - Pass Details

Date: 12 September 2024
Orbit: 473 x 485 km, 53.2° (Epoch: 05 October)

Event Time Altitude Azimuth Distance (km) Brightness Sun altitude
Rises 21:12:45 0° 309° (NW) 2,548 6.9 -20.9°
Reaches altitude 10° 21:14:55 10° 308° (NW) 1,668 5.7 -21.3°
Enters shadow 21:18:41 73° 224° (SW) 511 1.9 -22.0°
